{"data":{"norad_id":58951,"epoch":"2026-09-19T07:40:35.904000Z","epoch_age_seconds":257414,"freshness":"STALE","line1":"1 58951U 24027W   26262.31986000 -.00000395  00000+0 -57126-6 0  9993","line2":"2 58951  53.1575 123.1779 0001099  89.4163 270.6966 15.34372900147075","mean_motion":15.343729,"eccentricity":0.0001099,"inclination_deg":53.1575,"raan_deg":123.1779,"arg_perigee_deg":89.4163,"mean_anomaly_deg":270.6966,"bstar":-5.7126e-7,"rev_number":14707,"period_min":93.849415614679,"perigee_km":462.03197110905,"apogee_km":463.53560549832,"semimajor_km":6840.9207883037,"source":"CELESTRAK","updated_at":"2026-09-21T09:00:34.017840Z"}}